Regional Weather Roundup
Issued by NWS Midland/Odessa, TX

Skip options and go directly to product.
Home | Oldest Version | Next Version | Current Version | All | Text Only | Save Text | Print | Product List | Glossary On

Skip product version selection by date and time.   
507
ASUS44 KMAF 271601
RWRMAF
MIDLAND AREA WEATHER ROUNDUP
NATIONAL WEATHER SERVICE MIDLAND TX
1100 AM CDT SAT AUG 27 2016

...IN SOUTHWEST TEXAS AND SOUTHEAST NEW MEXICO...

CITY           SKY/WX    TMP DP  RH WIND       PRES   REMARKS
ALPINE         SUNNY     76  61  58 SW8       30.23S
ANDREWS        NOT AVBL
ARTESIA        SUNNY     73  64  73 SE7       30.12S
BIG SPRING     SUNNY     81  68  65 S12       30.11F
CARLSBAD       SUNNY     73  64  73 E3        30.10S
DRYDEN           N/A     78  70  76 SE6       30.06S
FORT STOCKTON  SUNNY     79  63  57 VRB7      30.09F
GUAD PASS      SUNNY     70  61  73 SW8       30.24R
HOBBS          SUNNY     75  64  69 SE8       30.13F
MARFA          SUNNY    N/A N/A N/A VRB6      30.22R
MIDLAND AIRPK  SUNNY     82  63  53 S13       30.10S
MIDLAND INTL   SUNNY     79  65  62 S12       30.10S
ODESSA         SUNNY     79  63  57 S13       30.11S
PECOS          SUNNY     76  65  69 E5        30.08R
PRESIDIO       NOT AVBL
SEMINOLE       SUNNY     76  64  64 S12       30.12F
SNYDER           N/A     77  67  72 SW9G16    30.10R
WINK           SUNNY     78  64  61 SE8       30.07F
$$
...OTHER STATIONS IN TEXAS...

CITY           SKY/WX    TMP DP  RH WIND       PRES   REMARKS
ABILENE        SUNNY     84  69  60 W10       30.07R
AMARILLO       SUNNY     75  63  66 SW15      30.13S
AUSTIN         MOSUNNY   84  73  69 NE3       30.03R
BROWNSVILLE    SUNNY     92  73  53 NE6       29.96S HX 100
CORPUS CHRISTI PTSUNNY   89  77  67 N9        29.98S HX 101
DALLAS FTW     MOSUNNY   83  72  69 SE7       30.04S
DEL RIO        SUNNY     82  73  74 SE7       30.01S
EL PASO        MOSUNNY   77  61  57 VRB5      30.12R
HOUSTON INT    CLOUDY    81  75  82 NE7       30.02S
LUBBOCK        MOSUNNY   79  64  60 SW13      30.11S
SAN ANGELO     SUNNY     86  69  56 SW7       30.06S
SAN ANTONIO    MOSUNNY   84  72  67 SE8       30.03R
WACO           MOSUNNY   83  75  77 E6        30.04S
WICHITA FALLS  NOT AVBL
$$
...OTHER LOCATIONS IN NEW MEXICO...

CITY           SKY/WX    TMP DP  RH WIND       PRES   REMARKS
ALAMAGORDO     SUNNY     75  57  53 CALM      30.16R
ALBUQUERQUE    MOSUNNY   71  51  49 SW5       30.22S
CANNON AFB     SUNNY     76  62  61 S12       30.15R
CLOVIS         SUNNY     75  61  60 S10       30.15S
HOLLOMAN AFB   NOT AVBL
ROSWELL        SUNNY     75  62  64 SW8       30.12S
RUIDOSO          N/A     66  45  45 CALM      30.31S
SANTA FE       SUNNY     66  50  56 CALM      30.27R
TRUTH OR CONSE SUNNY     74  53  48 VRB3      30.17S
TUCUMCARI      SUNNY     79  61  53 SW12      30.11F
$$

USA.gov is the U.S. government's official web portal to all federal, state and local government web resources and services.